Salina, KS

2:14 AM CDT on May 01, 2017 (GMT -0500)
Salina Municipal

Weather History for KSLN - December, 2012

Change the Weather History Date:

Monday, December 31, 2012

  Actual Average Record
Temperature  
Mean Temperature 30 °F 31 °F  
Max Temperature 37 °F 41 °F 63 °F (2004)
Min Temperature 22 °F 21 °F -7 °F (1968)
Degree Days  
Heating Degree Days 35 34  
Month to date heating degree days 942 1010  
Since 1 July heating degree days 1777 1964  
Cooling Degree Days 0 0  
Month to date cooling degree days 0 0  
Year to date cooling degree days 2051 1647  
Moisture  
Dew Point 21 °F    
Average Humidity 70    
Maximum Humidity 92    
Minimum Humidity 48    
Precipitation  
Precipitation T in 0.02 in 0.57 in (1991)
Month to date precipitation 0.11 0.94  
Year to date precipitation 18.01 31.50  
Sea Level Pressure  
Sea Level Pressure 30.11 in    
Wind  
Wind Speed 9 mph (NNE)    
Max Wind Speed 16 mph    
Max Gust Speed 21 mph    
Visibility 3 miles    
Events Snow    
T = Trace of Precipitation, MM = Missing Value Source: NWS Daily Summary

Daily Weather History Graph

Daily Weather History Graph

Search for Another Location

Airport or City:

Trip Planner

Search our weather history database for the weather conditions in past years. The results will help you decide how hot, cold, wet, or windy it might be!

Date:

Astronomy

Dec. 31, 2012 Rise Set
Actual Time 7:48 AM CST 5:19 PM CST
Civil Twilight 7:19 AM CST 5:48 PM CST
Nautical Twilight 6:45 AM CST 6:22 PM CST
Astronomical Twilight 6:13 AM CST 6:54 PM CST
Moon 8:48 PM CST (12/31) 9:33 AM CST (12/31)
Length of Visible Light 10h 29m
Length of Day
9h 30m
Waning Gibbous, 90% of the Moon is Illuminated
Dec 31
Waning Gibbous
Jan 4
Last Quarter
Jan 11
New
Jan 18
First Quarter
Jan 26
Full

Hourly Weather History & Observations

Time (CST) Temp. Windchill Dew Point Humidity Pressure Visibility Wind Dir Wind Speed Gust Speed Precip Events Conditions
12:53 AM 35.1 °F 31.0 °F 19.9 °F 54% 30.12 in 10.0 mi SSW 4.6 mph - N/A   Clear
1:53 AM 35.6 °F - 19.4 °F 52% 30.10 in 10.0 mi Calm Calm - N/A   Overcast
2:53 AM 34.0 °F 28.8 °F 21.9 °F 61% 30.11 in 10.0 mi NNW 5.8 mph - N/A   Overcast
3:53 AM 34.0 °F - 21.9 °F 61% 30.11 in 10.0 mi Calm Calm - N/A   Overcast
4:53 AM 33.1 °F 30.0 °F 23.0 °F 66% 30.11 in 10.0 mi NW 3.5 mph - N/A   Overcast
5:53 AM 32.0 °F 21.6 °F 21.0 °F 64% 30.09 in 10.0 mi North 15.0 mph - N/A   Overcast
6:26 AM 28.4 °F 19.1 °F 24.8 °F 86% 30.08 in 2.0 mi North 10.4 mph - N/A   Overcast
6:29 AM 28.4 °F 19.7 °F 24.8 °F 86% 30.08 in 1.8 mi North 9.2 mph - N/A   Overcast
6:53 AM 28.9 °F 20.4 °F 25.0 °F 85% 30.12 in 1.2 mi North 9.2 mph - 0.00 in Snow Light Snow
7:05 AM 28.4 °F 19.7 °F 24.8 °F 86% 30.09 in 1.0 mi North 9.2 mph - 0.00 in Snow Light Snow
7:34 AM 28.4 °F 21.2 °F 24.8 °F 86% 30.09 in 1.0 mi NNE 6.9 mph - 0.00 in Snow Light Snow
7:42 AM 28.4 °F 20.4 °F 24.8 °F 86% 30.08 in 1.0 mi NNE 8.1 mph - 0.00 in Snow Light Snow
7:53 AM 28.0 °F 21.7 °F 25.0 °F 88% 30.12 in 0.8 mi NNE 5.8 mph - 0.00 in Snow Light Snow
8:53 AM 27.0 °F 18.7 °F 24.1 °F 89% 30.12 in 0.8 mi ENE 8.1 mph - 0.00 in Snow Light Snow
9:53 AM 28.0 °F 21.7 °F 24.1 °F 85% 30.14 in 2.0 mi ENE 5.8 mph - 0.00 in Snow Light Snow
10:31 AM 28.4 °F 19.7 °F 24.8 °F 86% 30.11 in 2.0 mi ENE 9.2 mph - 0.00 in Snow Light Snow
10:53 AM 28.0 °F 18.1 °F 25.0 °F 88% 30.13 in 0.8 mi NE 11.5 mph - 0.00 in Snow Light Snow
11:53 AM 28.0 °F 17.0 °F 23.0 °F 81% 30.10 in 4.0 mi NNE 13.8 mph - 0.00 in Snow Light Snow
12:29 PM 28.4 °F 17.0 °F 23.0 °F 80% 30.06 in 1.8 mi NE 15.0 mph - 0.00 in Snow Light Snow
12:53 PM 28.0 °F 18.1 °F 23.0 °F 81% 30.08 in 1.0 mi NNE 11.5 mph - 0.00 in Snow Light Snow
1:09 PM 26.6 °F 16.8 °F 23.0 °F 86% 30.04 in 0.8 mi NE 10.4 mph - 0.00 in Snow Light Snow
1:41 PM 26.6 °F 17.5 °F 23.0 °F 86% 30.03 in 1.0 mi NNE 9.2 mph - 0.00 in Snow Light Snow
1:48 PM 26.6 °F 16.8 °F 23.0 °F 86% 30.02 in 0.8 mi NE 10.4 mph - 0.00 in Snow Light Snow
1:53 PM 27.0 °F 18.7 °F 23.0 °F 85% 30.06 in 0.8 mi NE 8.1 mph - 0.00 in Snow Light Snow
2:25 PM 26.6 °F 16.8 °F 21.2 °F 80% 30.03 in 0.8 mi NNE 10.4 mph - 0.00 in Snow Light Snow
2:41 PM 26.6 °F 16.2 °F 21.2 °F 80% 30.04 in 1.0 mi NNE 11.5 mph - 0.00 in Snow Light Snow
2:53 PM 26.1 °F 16.2 °F 21.9 °F 84% 30.08 in 1.0 mi NNE 10.4 mph - 0.00 in Snow Light Snow
3:04 PM 26.6 °F 15.2 °F 21.2 °F 80% 30.05 in 0.8 mi NNE 13.8 mph - 0.00 in Snow Light Snow
3:11 PM 26.6 °F 16.2 °F 21.2 °F 80% 30.05 in 1.0 mi NNE 11.5 mph - 0.00 in Snow Light Snow
3:34 PM 26.6 °F 16.8 °F 21.2 °F 80% 30.06 in 1.0 mi NNE 10.4 mph - 0.00 in Snow Light Snow
3:46 PM 24.8 °F 13.4 °F 21.2 °F 86% 30.06 in 1.0 mi North 12.7 mph - 0.00 in Snow Light Snow
3:53 PM 25.0 °F 13.6 °F 21.0 °F 85% 30.11 in 1.0 mi North 12.7 mph - 0.00 in Snow Light Snow
4:30 PM 24.8 °F 12.4 °F 19.4 °F 80% 30.08 in 1.5 mi NNE 15.0 mph 18.4 mph 0.00 in Snow Light Snow
4:38 PM 24.8 °F 14.0 °F 19.4 °F 80% 30.09 in 1.5 mi NNE 11.5 mph - 0.00 in Snow Light Snow
4:47 PM 24.8 °F 14.6 °F 19.4 °F 80% 30.08 in 1.2 mi NNE 10.4 mph - 0.00 in Snow Light Snow
4:53 PM 24.1 °F 12.5 °F 19.9 °F 84% 30.12 in 1.5 mi NNE 12.7 mph - 0.00 in Snow Light Snow
5:53 PM 23.0 °F 13.9 °F 19.0 °F 85% 30.14 in 1.5 mi NNE 8.1 mph - 0.00 in Snow Light Snow
6:53 PM 23.0 °F 12.4 °F 19.4 °F 86% 30.12 in 1.5 mi NNE 10.4 mph - N/A Snow Light Snow
7:00 PM 23.0 °F 12.4 °F 19.4 °F 86% 30.13 in 2.5 mi NNE 10.4 mph - N/A Snow Light Snow
7:09 PM 23.0 °F 11.7 °F 19.4 °F 86% 30.12 in 3.0 mi North 11.5 mph - 0.00 in Snow Light Snow
7:53 PM 23.0 °F 10.6 °F 18.0 °F 81% 30.18 in 2.5 mi NNE 13.8 mph - 0.00 in Snow Light Snow
8:53 PM 23.0 °F 12.4 °F 18.0 °F 81% 30.19 in 2.5 mi NNE 10.4 mph - 0.00 in Snow Light Snow
9:00 PM 23.0 °F 13.1 °F 19.4 °F 86% 30.15 in 2.5 mi North 9.2 mph - 0.00 in Snow Light Snow
9:43 PM 23.0 °F 12.4 °F 17.6 °F 80% 30.17 in 3.0 mi NNE 10.4 mph - 0.00 in Snow Light Snow
9:53 PM 23.0 °F 11.7 °F 18.0 °F 81% 30.22 in 4.0 mi NNE 11.5 mph - 0.00 in Snow Light Snow
10:33 PM 23.0 °F 12.4 °F 17.6 °F 80% 30.18 in 2.0 mi North 10.4 mph - 0.00 in Snow Light Snow
10:49 PM 23.0 °F 13.1 °F 19.4 °F 86% 30.18 in 1.5 mi North 9.2 mph - 0.00 in Snow Light Snow
10:53 PM 23.0 °F 12.4 °F 19.0 °F 85% 30.24 in 1.5 mi North 10.4 mph - 0.00 in Snow Light Snow
11:53 PM 21.9 °F 12.5 °F 19.0 °F 89% 30.24 in 1.8 mi North 8.1 mph - 0.00 in Snow Light Snow